Location: Newark
(7.1028°S, 35.3258°W)
Time: 05:27:30
(UTC+00:00)

Vanguard 3 - Pass Details

Date: 24 February 2020
Orbit: 508 x 3263 km, 33.4° (Epoch: 07 April)

Event Time Altitude Azimuth Distance (km) Brightness Sun altitude
Rises 00:08:37 0° 258° (WSW) 7,220 12.6 -49.9°
Reaches altitude 10° 00:15:24 10° 246° (WSW) 6,056 12.0 -51.5°
Maximum altitude 00:28:52 24° 199° (SSW) 4,248 10.9 -54.4°
Enters shadow 00:35:15 18° 165° (SSE) 4,143 10.7 -55.8°
Drops below altitude 10° 00:38:54 10° 149° (SSE) 4,427 - -56.6°
Sets 00:42:51 0° 134° (SE) 4,992 - -57.5°
